| time (UTC) | temp F | wind direction | speed MPH | gust MPH | rain 1hr in | rain 24hr in | rain mn in | humidity % | barometer mb |
| 20260831065003 | 68 | 209 | 1.0 | 10.0 | 0.00 | 0.00 | 0.00 | 83 | 1022.0 |
| 20260831064003 | 68 | 158 | 4.0 | 9.0 | 0.00 | 0.00 | 0.00 | 83 | 1022.1 |
| 20260831062003 | 68 | 152 | 5.0 | 17.0 | 0.00 | 0.00 | 0.00 | 82 | 1022.0 |
| 20260831061003 | 68 | 107 | 3.0 | 17.0 | 0.00 | 0.00 | 0.00 | 81 | 1022.1 |
| 20260831060003 | 68 | 152 | 10.0 | 17.0 | 0.00 | 0.00 | 0.00 | 77 | 1022.1 |
| 20260831055004 | 68 | 128 | 5.0 | 18.0 | 0.00 | 0.00 | 0.00 | 77 | 1022.1 |
| 20260831054004 | 69 | 131 | 8.0 | 16.0 | 0.00 | 0.00 | 0.00 | 77 | 1021.9 |
| 20260831053003 | 69 | 123 | 7.0 | 21.0 | 0.00 | 0.00 | 0.00 | 79 | 1021.9 |
| 20260831052003 | 69 | 148 | 6.0 | 16.0 | 0.00 | 0.00 | 0.00 | 79 | 1021.9 |
| 20260831050003 | 70 | 141 | 8.0 | 13.0 | 0.00 | 0.00 | 0.00 | 77 | 1022.0 |
| 20260831045004 | 70 | 122 | 5.0 | 12.0 | 0.00 | 0.00 | 0.00 | 77 | 1021.9 |
| 20260831044003 | 69 | 142 | 3.0 | 10.0 | 0.00 | 0.00 | 0.00 | 79 | 1021.9 |
| 20260831043003 | 69 | 116 | 8.0 | 10.0 | 0.00 | 0.00 | 0.00 | 79 | 1021.7 |
| 20260831042004 | 69 | 148 | 6.0 | 15.0 | 0.00 | 0.00 | 0.00 | 79 | 1021.9 |
| 20260831040003 | 70 | 128 | 6.0 | 12.0 | 0.00 | 0.00 | 0.00 | 77 | 1021.7 |
| 20260831035005 | 70 | 121 | 5.0 | 14.0 | 0.00 | 0.00 | 0.00 | 75 | 1021.8 |
| 20260831034004 | 70 | 157 | 7.0 | 14.0 | 0.00 | 0.00 | 0.00 | 75 | 1021.7 |
| 20260831033003 | 70 | 146 | 6.0 | 13.0 | 0.00 | 0.00 | 0.00 | 74 | 1021.6 |
| 20260831032004 | 70 | 156 | 5.0 | 13.0 | 0.00 | 0.00 | 0.00 | 76 | 1021.6 |
| 20260831030003 | 69 | 165 | 5.0 | 16.0 | 0.00 | 0.00 | 0.00 | 85 | 1021.4 |
| 20260831025004 | 69 | 156 | 6.0 | 14.0 | 0.00 | 0.00 | 0.00 | 89 | 1021.2 |
| 20260831024003 | 69 | 190 | 5.0 | 14.0 | 0.00 | 0.00 | 0.00 | 92 | 1021.2 |
| 20260831023003 | 70 | 152 | 6.0 | 16.0 | 0.00 | 0.00 | 0.00 | 94 | 1020.9 |
| 20260831022003 | 70 | 125 | 1.0 | 10.0 | 0.00 | 0.00 | 0.00 | 94 | 1020.8 |
| 20260831021004 | 71 | 167 | 2.0 | 14.0 | 0.00 | 0.00 | 0.00 | 93 | 1020.8 |
| 20260831015003 | 72 | 153 | 4.0 | 9.0 | 0.00 | 0.00 | 0.00 | 89 | 1020.2 |
| 20260831014003 | 72 | 132 | 5.0 | 10.0 | 0.00 | 0.00 | 0.00 | 87 | 1019.7 |
| 20260831013004 | 73 | 126 | 7.0 | 12.0 | 0.00 | 0.00 | 0.00 | 85 | 1019.5 |
| 20260831012004 | 73 | 142 | 5.0 | 12.0 | 0.00 | 0.00 | 0.00 | 84 | 1019.7 |
| 20260831011004 | 73 | 174 | 5.0 | 12.0 | 0.00 | 0.00 | 0.00 | 82 | 1019.5 |
| 20260831005003 | 74 | 138 | 8.0 | 14.0 | 0.00 | 0.00 | 0.00 | 79 | 1019.4 |
| 20260831004004 | 75 | 165 | 6.0 | 9.0 | 0.00 | 0.00 | 0.00 | 78 | 1019.6 |
| 20260831002006 | 76 | 177 | 3.0 | 12.0 | 0.00 | 0.00 | 0.00 | 78 | 1019.2 |
| 20260831001004 | 76 | 160 | 5.0 | 13.0 | 0.00 | 0.00 | 0.00 | 78 | 1019.1 |
| 20260831000003 | 77 | 198 | 3.0 | 10.0 | 0.00 | 0.00 | 0.00 | 74 | 1019.1 |
| 20260830235003 | 79 | 158 | 5.0 | 8.0 | 0.00 | 0.00 | 0.00 | 70 | 1018.8 |
| 20260830233003 | 79 | 153 | 6.0 | 12.0 | 0.00 | 0.00 | 0.00 | 71 | 1018.9 |
| 20260830231003 | 79 | 187 | 4.0 | 13.0 | 0.00 | 0.00 | 0.00 | 69 | 1018.7 |
| 20260830230005 | 80 | 167 | 5.0 | 13.0 | 0.00 | 0.00 | 0.00 | 68 | 1018.6 |
| 20260830225003 | 82 | 169 | 5.0 | 10.0 | 0.00 | 0.00 | 0.00 | 67 | 1018.7 |
| 20260830224005 | 81 | 203 | 2.0 | 9.0 | 0.00 | 0.00 | 0.00 | 63 | 1018.6 |
| 20260830223004 | 81 | 132 | 6.0 | 10.0 | 0.00 | 0.00 | 0.00 | 54 | 1018.7 |
| 20260830222003 | 82 | 210 | 3.0 | 10.0 | 0.00 | 0.00 | 0.00 | 52 | 1018.4 |
| 20260830221004 | 82 | 154 | 3.0 | 10.0 | 0.00 | 0.00 | 0.00 | 51 | 1018.7 |
| 20260830215003 | 83 | 255 | 1.0 | 9.0 | 0.00 | 0.00 | 0.00 | 49 | 1019.1 |
| 20260830214003 | 84 | 155 | 2.0 | 7.0 | 0.00 | 0.00 | 0.00 | 50 | 1018.9 |
| 20260830213004 | 81 | 198 | 2.0 | 7.0 | 0.00 | 0.00 | 0.00 | 52 | 1019.2 |
| 20260830212004 | 81 | 172 | 3.0 | 10.0 | 0.00 | 0.00 | 0.00 | 46 | 1019.3 |
| 20260830211003 | 81 | 167 | 4.0 | 10.0 | 0.00 | 0.00 | 0.00 | 50 | 1019.3 |
| 20260830210003 | 81 | 96 | 3.0 | 9.0 | 0.00 | 0.00 | 0.00 | 43 | 1019.4 |
| 20260830205003 | 80 | 203 | 1.0 | 7.0 | 0.00 | 0.00 | 0.00 | 54 | 1019.6 |
| 20260830204003 | 82 | 248 | 2.0 | 3.0 | 0.00 | 0.00 | 0.00 | 53 | 1019.5 |
| 20260830203003 | 79 | 343 | 1.0 | 5.0 | 0.00 | 0.00 | 0.00 | 56 | 1019.9 |
| 20260830201004 | 79 | 64 | 2.0 | 8.0 | 0.00 | 0.00 | 0.00 | 65 | 1020.1 |
| 20260830200003 | 80 | 5 | 5.0 | 8.0 | 0.00 | 0.00 | 0.00 | 62 | 1020.2 |
| 20260830195003 | 80 | 336 | 2.0 | 8.0 | 0.00 | 0.00 | 0.00 | 61 | 1020.5 |
| 20260830194004 | 79 | 352 | 2.0 | 7.0 | 0.00 | 0.00 | 0.00 | 63 | 1020.6 |
| 20260830193003 | 78 | 220 | 0.0 | 5.0 | 0.00 | 0.00 | 0.00 | 63 | 1020.8 |
| 20260830192003 | 80 | 275 | 1.0 | 5.0 | 0.00 | 0.00 | 0.00 | 61 | 1020.8 |
| 20260830190004 | 78 | 173 | 3.0 | 9.0 | 0.00 | 0.00 | 0.00 | 62 | 1020.9 |
| 20260830185004 | 79 | 325 | 2.0 | 6.0 | 0.00 | 0.00 | 0.00 | 60 | 1021.2 |
| 20260830184004 | 77 | 15 | 3.0 | 7.0 | 0.00 | 0.00 | 0.00 | 62 | 1021.3 |
| 20260830183004 | 77 | 343 | 5.0 | 6.0 | 0.00 | 0.00 | 0.00 | 61 | 1021.5 |
| 20260830182004 | 76 | 34 | 2.0 | 7.0 | 0.00 | 0.00 | 0.00 | 62 | 1021.5 |
| 20260830181004 | 76 | 277 | 2.0 | 7.0 | 0.00 | 0.00 | 0.00 | 64 | 1021.7 |
| 20260830175005 | 74 | 290 | 2.0 | 7.0 | 0.00 | 0.00 | 0.00 | 71 | 1021.9 |
| 20260830174004 | 74 | 320 | 2.0 | 6.0 | 0.00 | 0.00 | 0.00 | 73 | 1021.9 |
| 20260830173004 | 72 | 309 | 3.0 | 6.0 | 0.00 | 0.00 | 0.00 | 75 | 1022.0 |
| 20260830172003 | 73 | 5 | 2.0 | 8.0 | 0.00 | 0.00 | 0.00 | 75 | 1022.1 |
| 20260830171003 | 71 | 349 | 2.0 | 7.0 | 0.00 | 0.00 | 0.00 | 76 | 1022.3 |
| 20260830165005 | 72 | 0 | 2.0 | 7.0 | 0.00 | 0.00 | 0.00 | 75 | 1022.3 |
| 20260830164009 | 71 | 79 | 3.0 | 8.0 | 0.00 | 0.00 | 0.00 | 74 | 1022.4 |
| 20260830163004 | 70 | 353 | 3.0 | 8.0 | 0.00 | 0.00 | 0.00 | 77 | 1022.3 |
| 20260830162004 | 71 | 150 | 2.0 | 8.0 | 0.00 | 0.00 | 0.00 | 78 | 1022.4 |
| 20260830161004 | 71 | 25 | 3.0 | 8.0 | 0.00 | 0.00 | 0.00 | 78 | 1022.1 |
| 20260830160004 | 70 | 20 | 5.0 | 7.0 | 0.00 | 0.00 | 0.00 | 79 | 1022.3 |
| 20260830155005 | 69 | 55 | 4.0 | 8.0 | 0.00 | 0.00 | 0.00 | 80 | 1022.3 |
| 20260830154004 | 69 | 94 | 5.0 | 9.0 | 0.00 | 0.00 | 0.00 | 79 | 1022.5 |
| 20260830153004 | 69 | 0 | 2.0 | 10.0 | 0.00 | 0.00 | 0.00 | 81 | 1022.4 |
| 20260830152004 | 69 | 127 | 1.0 | 8.0 | 0.00 | 0.00 | 0.00 | 81 | 1022.5 |
| 20260830151004 | 69 | 69 | 2.0 | 7.0 | 0.00 | 0.00 | 0.00 | 80 | 1022.4 |
| 20260830150003 | 67 | 75 | 2.0 | 7.0 | 0.00 | 0.00 | 0.00 | 82 | 1022.6 |
| 20260830145007 | 68 | 104 | 2.0 | 7.0 | 0.00 | 0.00 | 0.00 | 84 | 1022.5 |
| 20260830144004 | 67 | 60 | 3.0 | 7.0 | 0.00 | 0.00 | 0.00 | 86 | 1022.5 |
| 20260830143004 | 67 | 32 | 3.0 | 5.0 | 0.00 | 0.00 | 0.00 | 86 | 1022.6 |
| 20260830142004 | 66 | 79 | 1.0 | 7.0 | 0.00 | 0.00 | 0.00 | 87 | 1022.6 |
| 20260830141003 | 66 | 100 | 2.0 | 8.0 | 0.00 | 0.00 | 0.00 | 88 | 1022.5 |
| 20260830140003 | 66 | 104 | 3.0 | 8.0 | 0.00 | 0.00 | 0.00 | 88 | 1022.5 |
| 20260830135004 | 66 | 32 | 3.0 | 8.0 | 0.00 | 0.01 | 0.00 | 89 | 1022.3 |
| 20260830134004 | 66 | 88 | 2.0 | 6.0 | 0.00 | 0.01 | 0.00 | 89 | 1022.5 |
| 20260830133004 | 66 | 104 | 2.0 | 6.0 | 0.00 | 0.01 | 0.00 | 90 | 1022.3 |
| 20260830132003 | 65 | 80 | 2.0 | 6.0 | 0.00 | 0.02 | 0.00 | 92 | 1022.3 |
| 20260830130004 | 65 | 96 | 2.0 | 3.0 | 0.00 | 0.03 | 0.00 | 92 | 1022.4 |
| 20260830124004 | 64 | 89 | 1.0 | 5.0 | 0.00 | 0.03 | 0.00 | 92 | 1022.2 |
| 20260830123004 | 64 | 111 | 1.0 | 3.0 | 0.00 | 0.07 | 0.00 | 92 | 1022.0 |
| 20260830122004 | 64 | 112 | 1.0 | 3.0 | 0.00 | 0.10 | 0.00 | 91 | 1021.9 |
| 20260830121004 | 64 | 85 | 3.0 | 3.0 | 0.00 | 0.10 | 0.00 | 90 | 1021.9 |
| 20260830120005 | 65 | 72 | 1.0 | 3.0 | 0.00 | 0.10 | 0.00 | 90 | 1021.9 |
| 20260830115004 | 64 | 84 | 1.0 | 3.0 | 0.00 | 0.10 | 0.00 | 90 | 1021.6 |
| 20260830114004 | 64 | 93 | 3.0 | 5.0 | 0.00 | 0.10 | 0.00 | 90 | 1021.6 |
| 20260830113003 | 64 | 115 | 2.0 | 5.0 | 0.00 | 0.10 | 0.00 | 90 | 1021.4 |
| 20260830112004 | 64 | 78 | 2.0 | 6.0 | 0.00 | 0.10 | 0.00 | 90 | 1021.4 |
| 20260830111004 | 64 | 93 | 2.0 | 5.0 | 0.00 | 0.10 | 0.00 | 90 | 1021.3 |
| 20260830110004 | 64 | 73 | 1.0 | 5.0 | 0.00 | 0.10 | 0.00 | 90 | 1021.3 |
| 20260830105004 | 64 | 107 | 2.0 | 3.0 | 0.00 | 0.11 | 0.00 | 90 | 1021.1 |
| 20260830104003 | 64 | 100 | 1.0 | 5.0 | 0.00 | 0.12 | 0.00 | 91 | 1021.2 |
| 20260830102004 | 64 | 120 | 2.0 | 2.0 | 0.00 | 0.14 | 0.00 | 93 | 1021.5 |
| 20260830101004 | 64 | 158 | 2.0 | 3.0 | 0.00 | 0.15 | 0.00 | 93 | 1021.5 |
| 20260830095005 | 64 | 67 | 1.0 | 2.0 | 0.00 | 0.16 | 0.00 | 92 | 1021.7 |
| 20260830094005 | 65 | 246 | 0.0 | 3.0 | 0.00 | 0.17 | 0.00 | 92 | 1021.8 |
| 20260830092004 | 65 | 114 | 0.0 | 3.0 | 0.00 | 0.17 | 0.00 | 92 | 1021.7 |
| 20260830091004 | 65 | 156 | 0.0 | 2.0 | 0.00 | 0.17 | 0.00 | 92 | 1021.8 |
| 20260830090004 | 65 | 106 | 0.0 | 2.0 | 0.00 | 0.17 | 0.00 | 92 | 1021.9 |
| 20260830085004 | 65 | 99 | 1.0 | 2.0 | 0.00 | 0.17 | 0.00 | 92 | 1021.9 |
| 20260830083003 | 65 | 95 | 1.0 | 3.0 | 0.00 | 0.17 | 0.00 | 91 | 1021.6 |
| 20260830082004 | 65 | 123 | 2.0 | 3.0 | 0.00 | 0.17 | 0.00 | 91 | 1021.7 |
| 20260830081004 | 65 | 120 | 1.0 | 3.0 | 0.00 | 0.17 | 0.00 | 92 | 1021.9 |
| 20260830080004 | 65 | 113 | 2.0 | 3.0 | 0.00 | 0.17 | 0.00 | 92 | 1022.0 |
| 20260830075003 | 65 | 104 | 1.0 | 3.0 | 0.00 | 0.17 | 0.00 | 92 | 1022.1 |
| 20260830073005 | 66 | 109 | 0.0 | 3.0 | 0.00 | 0.17 | 0.00 | 91 | 1022.3 |
| 20260830070004 | 67 | 235 | 1.0 | 2.0 | 0.00 | 0.17 | 0.00 | 88 | 1022.7 |